Regional Weather Roundup
Issued by NWS

Home | Current Version | Previous Version | Graphics & Text | Print | Product List | Glossary On
Versions: 1 2 3 4 5 6 7 8 9 10 11 12 13 14 15 16 17 18 19 20 21 22 23 24 25 26 27 28 29 30 31 32 33 34 35 36 37 38 39 40 41 42 43 44 45 46 47 48 49 50
000
ASUS45 KTFX 180504
RWRMT
MONTANA HOURLY WEATHER ROUNDUP
NATIONAL WEATHER SERVICE GREAT FALLS MT
1004 PM MST WED DEC 17 2014

NOTE: "FAIR" INDICATES FEW OR NO CLOUDS BELOW 12000 FEET WITH NO
SIGNIFICANT WEATHER AND/OR OBSTRUCTIONS TO VISIBILITY.

* THESE STATIONS ARE NOT UNDER NWS QUALITY CONTROL. THEY DO NOT
   REPORT WEATHER SUCH AS PRECIPITATION OR FOG.

MTZ001>007-043-180600-
WEST OF THE DIVIDE
CITY           SKY/WX    TMP DP  RH WIND       PRES   REMARKS
KALISPELL      CLOUDY    27  25  92 CALM      29.97R
MISSOULA       CLOUDY    28  25  89 CALM      29.99S
BUTTE          PTCLDY    10   9  96 CALM      29.97R
MULLAN PASS    FOG       27  27 100 VRB5      29.88S VSB 3/4  WCI  21
* ANACONDA     CLEAR     27  18  69 SE5        N/A   WCI  21
* ESSEX        N/A       27  25  92 N/A        N/A
* LINCOLN      N/A       16  14  92 NE3        N/A
* LOOKOUT PASS N/A       29  28  96 S1         N/A
* POLSON       N/A       28  27  96 N/A        N/A
* RONAN APT    CLOUDY    30  28  92 N/A        N/A
* SEELEY LAKE  N/A       17  15  92 N3         N/A
* THOMP F APT  CLOUDY    23  19  85 NE3        N/A
* YAAK HILL    N/A       33  29  85 N/A        N/A
$$

MTZ008-052>055-180600-
SOUTHWEST MONTANA
CITY           SKY/WX    TMP DP  RH WIND       PRES   REMARKS
BOZEMAN        PTCLDY    16  12  84 SE6       29.98R WCI   7
DILLON         PTCLDY    21  14  74 S6        29.98R WCI  13
* W YELLOWSTON CLEAR     20  17  88 N/A        N/A
* THREE FORKS  PTCLDY    18  -2  41 N/A        N/A
* BOULDER HILL N/A       25  17  72 SW9        N/A   WCI  16
* MONIDA PASS  N/A       15  14  96 SE7        N/A   WCI   5
* RAYNOLDS PAS N/A       14   1  56 S8         N/A   WCI   3
* WHITEHALL    N/A       21  17  84 N5         N/A   WCI  14
* WISE RIVER   N/A       16  14  92 NW3        N/A
$$

MTZ009>010-012-014-046-048-049-054-180600-
EAST SLOPES AND CENTRAL MONTANA
CITY           SKY/WX    TMP DP  RH WIND       PRES   REMARKS
CUT BANK       FOG       10   7  88 CALM      29.87R
GREAT FALLS    CLEAR     28  25  89 S12       29.88R WCI  18
HELENA         FOG       21  19  92 CALM      29.97R VSB 2
* DEARBORN     N/A       25  23  92 SW2        N/A
* EAST GLACIER N/A       35  24  64 W24G31     N/A   WCI  23
* MONARCH      N/A       23  17  78 S9         N/A   WCI  13
* PENDROY      N/A       26  24  92 SW1        N/A
* ROGERS PASS  N/A       28  21  75 SE7G16     N/A   WCI  21
* SWEET GRASS  N/A       16  16 100 S7         N/A   WCI   6
$$

MTZ011-013-016-021-035-040-045-047-050-051-180600-
NORTH CENTRAL MONTANA
CITY           SKY/WX    TMP DP  RH WIND       PRES   REMARKS
HAVRE          FOG       21  19  92 S5        29.93S VSB M1/4 WCI  14
LEWISTOWN      CLOUDY    30  21  69 CALM      29.89R
* N BAR RANCH  CLOUDY    28  27  96 NW3       29.89S
* CHESTER      N/A       22  20  92 N/A        N/A
* DENTON       N/A       28  27  96 S2         N/A
* GEYSER       N/A       26  18  72 NE1        N/A
* JUDITH GAP   N/A       24  22  92 W2         N/A
* LOMA         N/A       23  22  96 NE6        N/A   WCI  16
$$

MTZ017>020-022>027-061-062-180600-
NORTHEAST MONTANA
CITY           SKY/WX    TMP DP  RH WIND       PRES   REMARKS
GLASGOW        CLOUDY    25  19  78 E10       29.97S WCI  15
GLENDIVE       CLOUDY    21  18  88 S5        30.00S WCI  14
JORDAN         CLEAR     27  23  85 E3        29.94S
SIDNEY         CLOUDY    23  18  81 SE8       30.05F WCI  14
WOLF POINT     CLOUDY    25  18  75 E7        30.02S WCI  17
* BEAVER HILL  N/A       20  18  92 SE7        N/A   WCI  11
* CIRCLE       N/A       24  21  88 N/A        N/A
* NAVAJO       N/A       18  16  92 S9         N/A   WCI   7
* SACO         N/A       24  21  88 E7         N/A   WCI  16
$$

MTZ028>042-056>058-180600-
SOUTHCENTRAL AND SOUTHEAST MONTANA
CITY           SKY/WX    TMP DP  RH WIND       PRES   REMARKS
BAKER          CLOUDY    21  21 100 S9        29.97S WCI  11
BILLINGS       PTCLDY    27  19  72 SW15      29.93S WCI  15
LIVINGSTON     CLEAR     32  18  56 W15       29.93R WCI  22
MILES CITY     CLOUDY    25  21  85 SE5       29.96S WCI  19
* LAUREL APT   CLEAR     25  16  69 SW6        N/A   WCI  18
* ROUNDUP APT  MOCLDY    28  23  81 N/A        N/A
* ALZADA       N/A       19  17  92 SE2        N/A
* HYSHAM       N/A       28  22  78 W4         N/A
* LAME DEER    N/A       27  27 100 N/A        N/A
* REED POINT   N/A       21  20  96 N/A        N/A
* ROSCOE HILL  N/A       26  12  55 SW3        N/A
$$

REGIONAL REPORTS...DAKOTAS
CITY           SKY/WX    TMP DP  RH WIND       PRES   REMARKS
WILLISTON      CLOUDY    19  16  88 SE9       30.06F WCI   8
DICKINSON      CLOUDY    18  16  92 SE10      30.02S WCI   6
BEACH          CLOUDY    19  19 100 S10       30.00S WCI   8
CROSBY         CLOUDY    18  16  92 S9        30.08F WCI   7
WATFORD CITY   CLOUDY    18  16  92 SE9       30.04F WCI   7
BISMARCK       CLOUDY    18  12  77 SE8       30.17F WCI   8
GRAND FORKS    MOCLDY     9   3  76 CALM      30.32F
FARGO          PTCLDY     9   5  84 NE5       30.31F
BUFFALO SD     PTCLDY    21  18  88 S8        29.92F WCI  11
RAPID CITY     FOG       21  19  92 SE6       30.00S WCI  13
$$

REGIONAL REPORTS...WYOMING/IDAHO/WASHINGTON
CITY           SKY/WX    TMP DP  RH WIND       PRES   REMARKS
GILLETTE       CLEAR     25  19  78 SW5       29.94S WCI  19
SHERIDAN       PTCLDY    14  10  84 CALM      29.93S
CODY           PTCLDY    21  18  88 CALM      29.92S
YELLOWSTONE LA MOCLDY    18  14  84 CALM      30.00R
SALMON         PTCLDY    18  16  92 CALM      30.05S
MULLAN PASS    FOG       27  27 100 VRB5      29.88S VSB 3/4  WCI  21
SAND POINT     N/A       32  32 100 CALM      29.98R
SPOKANE        CLOUDY    36  34  92 N3        29.94S

$$




USA.gov is the U.S. government's official web portal to all federal, state and local government web resources and services.